Location: Leipzig
(51.3392°N, 12.3528°E)
Time: 10:28:48
(UTC+01:00)

ISS - Pass Details

Date: 14 November 2017
Orbit: 402 x 407 km, 51.6° (Epoch: 23 November)

Event Time Altitude Azimuth Distance (km) Brightness Sun altitude
Exits shadow 05:45:06 29° 235° (SW) 772 -2.8 -15.7°
Maximum altitude 05:45:45 32° 209° (SSW) 717 -2.8 -15.6°
Drops below altitude 10° 05:48:42 10° 144° (SE) 1,451 -0.4 -15.1°
Sets 05:50:53 0° 135° (SE) 2,308 1.0 -14.8°
